{"data":{"norad_id":48775,"epoch":"2026-09-20T04:42:14.881248Z","epoch_age_seconds":44502,"freshness":"FRESH","line1":"1 48775U 21045J   26263.19600557 -.00000112  00000+0 -33098-3 0  9996","line2":"2 48775  87.8993 240.2465 0001887  76.9657 283.1684 13.15548563256897","mean_motion":13.15548563,"eccentricity":0.0001887,"inclination_deg":87.8993,"raan_deg":240.2465,"arg_perigee_deg":76.9657,"mean_anomaly_deg":283.1684,"bstar":-0.00033098,"rev_number":25689,"period_min":109.46004127101,"perigee_km":1200.3403889398,"apogee_km":1203.2010461124,"semimajor_km":7579.9077175261,"source":"CELESTRAK","updated_at":"2026-09-20T09:00:44.616528Z"}}